| time (UTC) | temp F | wind direction | speed knots | gust knots | rain 1hr in | rain 24hr in | rain mn in | humidity % | barometer mb |
| 20260504110627 | 41 | 325 | 0.0 | 0.0 | 0.00 | 0.00 | 0.00 | 94 | 989.1 |
| 20260504081814 | 43 | 325 | 0.0 | 0.0 | 0.00 | 0.00 | 0.00 | 91 | 989.8 |
| 20260504081216 | 43 | 325 | 0.0 | 0.0 | 0.00 | 0.00 | 0.00 | 92 | 989.8 |
| 20260504080626 | 43 | 325 | 0.0 | 0.0 | 0.00 | 0.00 | 0.00 | 92 | 989.8 |
| 20260504045417 | 43 | 325 | 0.0 | 0.0 | 0.00 | 0.00 | 0.00 | 88 | 990.5 |
| 20260504044831 | 43 | 325 | 0.0 | 0.0 | 0.00 | 0.00 | 0.00 | 88 | 990.5 |
| 20260504044221 | 43 | 325 | 0.0 | 0.0 | 0.00 | 0.00 | 0.00 | 88 | 990.5 |
| 20260504043642 | 44 | 325 | 0.0 | 0.0 | 0.00 | 0.00 | 0.00 | 87 | 990.5 |
| 20260504043048 | 44 | 325 | 0.0 | 0.9 | 0.00 | 0.00 | 0.00 | 87 | 990.1 |
| 20260504042431 | 44 | 325 | 0.0 | 0.0 | 0.00 | 0.00 | 0.00 | 87 | 990.1 |
| 20260504041228 | 45 | 325 | 0.0 | 0.0 | 0.00 | 0.00 | 0.00 | 86 | 990.1 |
| 20260504040644 | 45 | 325 | 0.0 | 0.9 | 0.00 | 0.00 | 0.00 | 86 | 990.1 |
| 20260504040030 | 45 | 325 | 0.9 | 1.7 | 0.00 | 0.00 | 0.00 | 85 | 990.1 |
| 20260504035428 | 46 | 325 | 0.9 | 0.9 | 0.00 | 0.00 | 0.00 | 84 | 990.1 |
| 20260504034214 | 47 | 325 | 0.0 | 0.0 | 0.00 | 0.00 | 0.00 | 82 | 990.1 |
| 20260504033612 | 48 | 325 | 0.0 | 0.0 | 0.00 | 0.00 | 0.00 | 81 | 990.1 |
| 20260504033036 | 48 | 325 | 0.0 | 0.0 | 0.00 | 0.00 | 0.00 | 80 | 990.1 |
| 20260504031244 | 48 | 325 | 0.0 | 0.0 | 0.00 | 0.00 | 0.00 | 80 | 990.1 |
| 20260504030018 | 48 | 325 | 0.0 | 0.0 | 0.00 | 0.00 | 0.00 | 80 | 989.8 |
| 20260504025413 | 48 | 325 | 0.0 | 0.0 | 0.00 | 0.00 | 0.00 | 80 | 989.8 |
| 20260504024824 | 48 | 325 | 0.0 | 0.0 | 0.00 | 0.00 | 0.00 | 81 | 989.8 |
| 20260504024220 | 48 | 325 | 0.0 | 0.0 | 0.00 | 0.00 | 0.00 | 80 | 989.8 |
| 20260504023633 | 48 | 325 | 0.9 | 1.7 | 0.00 | 0.00 | 0.00 | 79 | 989.8 |
| 20260504023027 | 49 | 325 | 0.0 | 0.0 | 0.00 | 0.00 | 0.00 | 75 | 989.5 |
| 20260504022437 | 49 | 314 | 0.0 | 0.0 | 0.00 | 0.00 | 0.00 | 75 | 989.5 |
| 20260504021834 | 49 | 314 | 0.0 | 0.9 | 0.00 | 0.00 | 0.00 | 77 | 989.5 |
| 20260504020620 | 49 | 210 | 0.0 | 0.0 | 0.00 | 0.00 | 0.00 | 78 | 989.5 |
| 20260504020020 | 48 | 210 | 0.0 | 0.0 | 0.00 | 0.00 | 0.00 | 77 | 989.8 |
| 20260504015443 | 49 | 210 | 0.0 | 0.0 | 0.00 | 0.00 | 0.00 | 77 | 989.5 |
| 20260504014826 | 49 | 210 | 0.0 | 0.0 | 0.00 | 0.00 | 0.00 | 77 | 989.5 |
| 20260504014244 | 48 | 210 | 0.0 | 0.0 | 0.00 | 0.00 | 0.00 | 77 | 989.1 |
| 20260504013650 | 48 | 210 | 0.0 | 0.0 | 0.00 | 0.00 | 0.00 | 77 | 989.1 |
| 20260504012412 | 48 | 210 | 0.0 | 0.0 | 0.00 | 0.00 | 0.00 | 77 | 989.5 |
| 20260504011837 | 48 | 210 | 0.0 | 0.0 | 0.00 | 0.00 | 0.00 | 75 | 989.5 |
| 20260504011214 | 48 | 210 | 0.0 | 0.0 | 0.00 | 0.00 | 0.00 | 75 | 989.5 |
| 20260504010635 | 48 | 210 | 0.0 | 0.0 | 0.00 | 0.00 | 0.00 | 74 | 989.5 |
| 20260504010049 | 48 | 210 | 0.0 | 0.0 | 0.00 | 0.00 | 0.00 | 74 | 989.1 |
| 20260504005438 | 49 | 210 | 0.0 | 0.0 | 0.00 | 0.00 | 0.00 | 75 | 989.5 |
| 20260504004247 | 50 | 210 | 0.0 | 1.7 | 0.00 | 0.00 | 0.00 | 72 | 989.1 |
| 20260504003614 | 50 | 210 | 0.0 | 0.0 | 0.00 | 0.00 | 0.00 | 70 | 989.1 |
| 20260504003040 | 50 | 210 | 0.9 | 1.7 | 0.00 | 0.00 | 0.00 | 67 | 988.8 |
| 20260504002436 | 51 | 210 | 0.0 | 0.0 | 0.00 | 0.00 | 0.00 | 67 | 988.8 |
| 20260504001818 | 51 | 210 | 0.0 | 0.0 | 0.00 | 0.00 | 0.00 | 66 | 988.8 |
| 20260504001219 | 52 | 210 | 0.0 | 0.0 | 0.00 | 0.00 | 0.00 | 67 | 988.8 |
| 20260504000654 | 52 | 210 | 0.0 | 0.0 | 0.00 | 0.00 | 0.00 | 64 | 988.8 |
| 20260504000042 | 53 | 210 | 0.0 | 0.0 | 0.00 | 0.00 | 0.00 | 64 | 988.8 |
| 20260503235412 | 54 | 210 | 0.0 | 0.0 | 0.00 | 0.00 | 0.00 | 61 | 988.8 |
| 20260503234815 | 54 | 210 | 0.9 | 1.7 | 0.00 | 0.00 | 0.00 | 59 | 988.8 |
| 20260503234236 | 55 | 210 | 1.7 | 1.7 | 0.00 | 0.00 | 0.00 | 57 | 988.8 |
| 20260503233627 | 56 | 209 | 0.0 | 0.9 | 0.00 | 0.00 | 0.00 | 56 | 988.8 |
| 20260503233035 | 57 | 207 | 0.0 | 0.0 | 0.00 | 0.00 | 0.00 | 53 | 988.8 |
| 20260503232447 | 58 | 208 | 0.0 | 1.7 | 0.00 | 0.00 | 0.00 | 52 | 988.8 |
| 20260503231818 | 60 | 208 | 0.9 | 1.7 | 0.00 | 0.00 | 0.00 | 47 | 988.8 |
| 20260503231252 | 61 | 119 | 0.0 | 0.0 | 0.00 | 0.00 | 0.00 | 44 | 988.8 |
| 20260503230636 | 62 | 119 | 0.0 | 0.0 | 0.00 | 0.00 | 0.00 | 41 | 988.8 |
| 20260503230041 | 62 | 340 | 1.7 | 1.7 | 0.00 | 0.00 | 0.00 | 40 | 988.8 |
| 20260503224223 | 64 | 207 | 0.0 | 1.7 | 0.00 | 0.00 | 0.00 | 37 | 989.1 |
| 20260503223614 | 65 | 193 | 0.0 | 0.9 | 0.00 | 0.00 | 0.00 | 36 | 989.1 |
| 20260503223014 | 66 | 125 | 0.9 | 7.0 | 0.00 | 0.00 | 0.00 | 32 | 989.1 |
| 20260503222422 | 67 | 137 | 0.0 | 0.0 | 0.00 | 0.00 | 0.00 | 32 | 989.1 |
| 20260503221820 | 67 | 101 | 0.9 | 2.6 | 0.00 | 0.00 | 0.00 | 30 | 989.1 |
| 20260503221224 | 68 | 231 | 0.0 | 5.2 | 0.00 | 0.00 | 0.00 | 29 | 989.1 |
| 20260503220654 | 68 | 352 | 0.0 | 0.0 | 0.00 | 0.00 | 0.00 | 34 | 989.5 |
| 20260503220044 | 67 | 352 | 0.0 | 1.7 | 0.00 | 0.00 | 0.00 | 33 | 989.1 |
| 20260503215439 | 68 | 251 | 1.7 | 4.3 | 0.00 | 0.00 | 0.00 | 28 | 989.1 |
| 20260503214810 | 68 | 182 | 0.0 | 1.7 | 0.00 | 0.00 | 0.00 | 31 | 989.1 |
| 20260503214224 | 68 | 315 | 0.0 | 2.6 | 0.00 | 0.00 | 0.00 | 29 | 989.1 |
| 20260503213647 | 68 | 226 | 0.9 | 3.5 | 0.00 | 0.00 | 0.00 | 31 | 989.1 |
| 20260503212440 | 68 | 120 | 3.5 | 6.1 | 0.00 | 0.00 | 0.00 | 31 | 989.5 |
| 20260503211827 | 67 | 160 | 0.9 | 2.6 | 0.00 | 0.00 | 0.00 | 33 | 989.5 |
| 20260503211227 | 66 | 129 | 1.7 | 4.3 | 0.00 | 0.00 | 0.00 | 29 | 989.5 |
| 20260503210647 | 68 | 153 | 0.0 | 1.7 | 0.00 | 0.00 | 0.00 | 30 | 989.5 |
| 20260503210017 | 68 | 244 | 0.9 | 4.3 | 0.00 | 0.00 | 0.00 | 31 | 989.5 |
| 20260503205430 | 67 | 234 | 0.9 | 3.5 | 0.00 | 0.00 | 0.00 | 30 | 989.5 |
| 20260503204242 | 66 | 307 | 0.0 | 0.9 | 0.00 | 0.00 | 0.00 | 29 | 989.8 |
| 20260503203038 | 67 | 79 | 2.6 | 6.1 | 0.00 | 0.00 | 0.00 | 30 | 989.8 |
| 20260503202422 | 66 | 312 | 0.9 | 3.5 | 0.00 | 0.00 | 0.00 | 32 | 990.1 |
| 20260503201816 | 67 | 309 | 0.0 | 2.6 | 0.00 | 0.00 | 0.00 | 31 | 990.1 |
| 20260503201234 | 66 | 231 | 0.0 | 3.5 | 0.00 | 0.00 | 0.00 | 33 | 990.1 |
| 20260503200625 | 64 | 108 | 0.0 | 3.5 | 0.00 | 0.00 | 0.00 | 33 | 990.5 |
| 20260503200026 | 64 | 116 | 0.0 | 1.7 | 0.00 | 0.00 | 0.00 | 32 | 990.5 |
| 20260503195409 | 64 | 125 | 3.5 | 4.3 | 0.00 | 0.00 | 0.00 | 34 | 990.5 |
| 20260503194821 | 64 | 125 | 3.5 | 10.4 | 0.00 | 0.00 | 0.00 | 32 | 990.8 |
| 20260503194241 | 65 | 299 | 2.6 | 6.1 | 0.00 | 0.00 | 0.00 | 33 | 990.8 |
| 20260503193621 | 65 | 330 | 0.9 | 1.7 | 0.00 | 0.00 | 0.00 | 33 | 990.8 |
| 20260503193043 | 65 | 91 | 2.6 | 5.2 | 0.00 | 0.00 | 0.00 | 34 | 991.1 |
| 20260503192436 | 63 | 345 | 3.5 | 4.3 | 0.00 | 0.00 | 0.00 | 31 | 991.1 |
| 20260503191842 | 64 | 226 | 0.9 | 5.2 | 0.00 | 0.00 | 0.00 | 33 | 991.1 |
| 20260503191249 | 63 | 13 | 3.5 | 6.1 | 0.00 | 0.00 | 0.00 | 31 | 991.5 |
| 20260503190636 | 62 | 319 | 0.9 | 7.8 | 0.00 | 0.00 | 0.00 | 30 | 991.5 |
| 20260503190052 | 63 | 107 | 1.7 | 4.3 | 0.00 | 0.00 | 0.00 | 35 | 991.5 |
| 20260503185423 | 64 | 101 | 2.6 | 4.3 | 0.00 | 0.00 | 0.00 | 34 | 991.8 |
| 20260503184846 | 62 | 203 | 1.7 | 4.3 | 0.00 | 0.00 | 0.00 | 37 | 991.8 |
| 20260503184216 | 62 | 303 | 0.0 | 7.8 | 0.00 | 0.00 | 0.00 | 33 | 991.8 |
| 20260503183031 | 63 | 202 | 1.7 | 3.5 | 0.00 | 0.00 | 0.00 | 36 | 992.2 |
| 20260503182446 | 63 | 319 | 4.3 | 6.1 | 0.00 | 0.00 | 0.00 | 36 | 992.2 |
| 20260503181853 | 62 | 48 | 3.5 | 3.5 | 0.00 | 0.00 | 0.00 | 33 | 992.2 |
| 20260503181236 | 64 | 94 | 6.1 | 6.1 | 0.00 | 0.00 | 0.00 | 36 | 992.5 |
| 20260503180651 | 61 | 231 | 2.6 | 7.8 | 0.00 | 0.00 | 0.00 | 38 | 992.2 |
| 20260503180026 | 60 | 124 | 5.2 | 9.6 | 0.00 | 0.00 | 0.00 | 34 | 992.5 |
| 20260503175417 | 60 | 97 | 7.8 | 8.7 | 0.00 | 0.00 | 0.00 | 37 | 992.5 |
| 20260503174820 | 60 | 352 | 1.7 | 5.2 | 0.00 | 0.00 | 0.00 | 38 | 992.5 |
| 20260503174213 | 59 | 317 | 1.7 | 2.6 | 0.00 | 0.00 | 0.00 | 39 | 992.5 |
| 20260503173627 | 59 | 330 | 5.2 | 7.0 | 0.00 | 0.00 | 0.00 | 41 | 992.8 |
| 20260503173035 | 59 | 335 | 0.9 | 2.6 | 0.00 | 0.00 | 0.00 | 38 | 993.2 |
| 20260503172413 | 59 | 346 | 4.3 | 5.2 | 0.00 | 0.00 | 0.00 | 39 | 993.2 |
| 20260503171814 | 59 | 323 | 1.7 | 3.5 | 0.00 | 0.00 | 0.00 | 40 | 993.5 |
| 20260503171254 | 58 | 111 | 6.1 | 6.1 | 0.00 | 0.00 | 0.00 | 39 | 993.5 |
| 20260503150630 | 53 | 117 | 2.6 | 7.8 | 0.00 | 0.00 | 0.00 | 45 | 994.9 |
| 20260503130620 | 40 | 320 | 0.9 | 0.9 | 0.00 | 0.00 | 0.00 | 89 | 995.2 |